Regional Weather Roundup
Issued by NWS

Home | Current Version | Previous Version | Graphics & Text | Print | Product List | Glossary Off
Versions: 1 2 3 4 5 6 7 8 9 10 11 12 13 14 15 16 17 18 19 20 21 22 23 24 25 26 27 28 29 30 31 32 33 34 35 36 37 38 39 40 41 42 43 44 45 46 47 48 49 50

000
ASUS43 KLSX 270559
RWRMO

WEATHER SUMMARY FOR MISSOURI
NATIONAL WEATHER SERVICE SPRINGFIELD MO
100 AM CDT WED MAY 27 2015

NOTE: "FAIR" INDICATES FEW OR NO CLOUDS BELOW 12,000 FEET WITH NO
       SIGNIFICANT WEATHER AND/OR OBSTRUCTIONS TO VISIBILITY.
       CURRENT SKY AND/OR WEATHER CONDITIONS ARE NOT AVAILABLE FOR
       CHILLICOTHE AND FARMINGTON.

MOZ001>031-035>038-043-044-053-054-270700-
...NORTHERN AND WESTERN MISSOURI...

CITY           SKY/WX    TMP DP  RH WIND       PRES   REMARKS
KANSAS CTY INT CLEAR     63  57  81 W6        29.95R
6HR MIN TEMP:  63; 6HR MAX TEMP:  75;

KANSAS C DTWN  PTCLDY    69  57  65 W7        29.94R
6HR MIN TEMP:  67; 6HR MAX TEMP:  78;

LEE`S SUMMIT   PTCLDY    65  61  87 SW7       29.96S
6HR MIN TEMP:  64; 6HR MAX TEMP:  77;

ST JOSEPH      PTCLDY    61  58  90 W7        29.94F
6HR MIN TEMP:  61; 6HR MAX TEMP:  75;

KIRKSVILLE     CLEAR     60  60 100 S5        29.93S
6HR MIN TEMP:  60; 6HR MAX TEMP:  75; 6HR PCP:  0.01;


$$
MOZ066>068-077>081-088>096-101>105-270700-
...SOUTHWEST MISSOURI...

CITY           SKY/WX    TMP DP  RH WIND       PRES   REMARKS
SPRINGFIELD    MOCLDY    67  61  81 S6        30.00R
6HR MIN TEMP:  64; 6HR MAX TEMP:  76; 6HR PCP: TRACE;

JOPLIN         CLOUDY    67  65  93 SW3       29.98S
6HR MIN TEMP:  63; 6HR MAX TEMP:  74; 6HR PCP:  0.02;


$$
MOZ032>034-039>042-045>050-055>058-069>072-270700-
...CENTRAL MISSOURI...

CITY           SKY/WX    TMP DP  RH WIND       PRES   REMARKS
COLUMBIA       PTCLDY    66  61  84 SW7       29.95F
6HR MIN TEMP:  66; 6HR MAX TEMP:  76;

JEFFERSON CITY CLEAR     69  61  75 CALM      29.95F
6HR MIN TEMP:  69; 6HR MAX TEMP:  78;

ROLLA          CLEAR     65  61  87 S8        29.97F
6HR MIN TEMP:  64; 6HR MAX TEMP:  74;

SEDALIA        PTCLDY    68  61  78 SW9       29.96F
6HR MIN TEMP:  68; 6HR MAX TEMP:  77;

OSAGE BEACH    PTCLDY    66  61  82 CALM      29.97S

$$
MOZ051-052-059>065-270700-
...EAST CENTRAL MISSOURI...

CITY           SKY/WX    TMP DP  RH WIND       PRES   REMARKS
ST LOUIS INTL  PTCLDY    72  60  66 S9        29.97F
6HR MIN TEMP:  72; 6HR MAX TEMP:  79;

SPIRIT OF STL  CLEAR    N/A N/A N/A SW7       29.96S
ST CHARLES     CLEAR     67  61  81 SW6       29.95F
6HR MIN TEMP:  67; 6HR MAX TEMP:  78;


$$
MOZ072>076-082>087-097>100-106>115-270700-
...SOUTH CENTRAL AND SOUTHEAST MISSOURI...

CITY           SKY/WX    TMP DP  RH WIND       PRES   REMARKS
CAPE GIRARDEAU CLEAR     68  63  84 SW7       30.03F
6HR MIN TEMP:  68; 6HR MAX TEMP:  75;

FARMINGTON     CLEAR     64  61  88 S8        30.05F
6HR MIN TEMP:  64; 6HR MAX TEMP:  73;

POPLAR BLUFF   PTCLDY    67  63  87 SW3       30.02F
6HR MIN TEMP:  67; 6HR MAX TEMP:  76;

WEST PLAINS    PTCLDY    65  61  87 S7        30.03F
6HR MIN TEMP:  65; 6HR MAX TEMP:  75;


$$



USA.gov is the U.S. government's official web portal to all federal, state and local government web resources and services.